This demonstration page uses our WeatherBlox Daily Observations layout. Learn more.

Hourly Observations for June 17, 2017

Temp ( °F °C ) Dew Point ( °F °C ) Humidity (%) Winds ( mph kmh ) Pressure ( in mb ) Visibility ( mi km ) Precip ( " mm )
12:54 am 00:54 Clear 69 20.6 67 19.4 93 93 N 6 9 N/A 10 16.0934 0 0
1:54 am 01:54 Clear 68 20 66 18.9 93 93 NNE 5 7 N/A 10 16.0934 0 0
2:54 am 02:54 Clear 68 20 66 18.9 93 93 N 5 7 N/A 10 16.0934 0 0
3:47 am 03:47 Partly Cloudy 68 20 67 19.4 96 96 N 7 11 N/A 10 16.0934 0 0
3:54 am 03:54 Mostly Cloudy with Mist and Fog 68 20 67 19.4 96 96 N 8 13 N/A 6 9.65604 0 0
4:06 am 04:06 Cloudy with Mist and Fog 68 20 67 19.4 96 96 NNE 8 13 N/A 2.5 4.02335 0 0
4:14 am 04:14 Cloudy with Mist and Fog 68 20 67 19.4 96 96 N 8 13 N/A 4 6.43736 0 0
4:54 am 04:54 Cloudy with Mist and Fog 69 20.6 67 19.4 93 93 NNE 10 17 N/A 5 8.0467 0 0
5:08 am 05:08 Cloudy with Mist and Fog 68 20 67 19.4 96 96 N 13 20 N/A 1.75 2.816345 0 0
5:31 am 05:31 Cloudy with Mist and Fog 68 20 67 19.4 96 96 N 7 11 N/A 2.5 4.02335 0 0
5:54 am 05:54 Cloudy with Mist and Fog 68 20 67 19.4 96 96 N 9 15 N/A 2.5 4.02335 0 0
6:54 am 06:54 Cloudy with Mist and Fog 68 20 67 19.4 96 96 NE 6 9 29.63 1003 2.5 4.02335 0 0
7:52 am 07:52 Mostly Cloudy with Mist and Fog 70 21 66 19 88 88 E 5 7 29.62 1003 2.5 4.02335 0 0
7:54 am 07:54 Mostly Cloudy with Mist and Fog 70 21.1 67 19.4 90 90 E 5 7 29.63 1003 2.5 4.02335 0 0
8:36 am 08:36 Mostly Cloudy with Mist and Fog 72 22.2 68 20 87 87 ENE 7 11 29.65 1004 6 9.65604 0 0
8:54 am 08:54 Mostly Cloudy with Haze 73 22.8 68 20 84 84 N 5 7 29.64 1004 6 9.65604 0 0
9:41 am 09:41 Mostly Sunny 75 23.9 68 20 79 79 NNE 7 11 29.62 1003 8 12.87472 0 0
9:54 am 09:54 Sunny 75 23.9 69 20.6 82 82 N 5 7 29.65 1004 8 12.87472 0 0
10:54 am 10:54 Sunny 78 25.6 70 21.1 76 76 NNE 8 13 29.65 1004 10 16.0934 0 0
11:54 am 11:54 Partly Cloudy 78 25.6 68 20 71 71 NE 7 11 29.65 1004 10 16.0934 0 0
12:54 pm 12:54 Partly Cloudy 79 26.1 69 20.6 72 72 NNE 9 15 29.67 1005 10 16.0934 0 0
1:54 pm 13:54 Mostly Sunny 80 26.7 66 18.9 62 62 NNE 14 22 29.65 1004 10 16.0934 0 0
2:54 pm 14:54 Sunny 81 27.2 64 17.8 57 57 NNE 9 15 29.65 1004 10 16.0934 0 0
3:54 pm 15:54 Sunny 78 25.6 62 16.7 58 58 NE 8 13 29.67 1005 10 16.0934 0 0
4:54 pm 16:54 Sunny 79 26.1 63 17.2 58 58 NNE 9 15 29.67 1005 10 16.0934 0 0
5:54 pm 17:54 Sunny 76 24.4 63 17.2 64 64 N 18 30 29.72 1007 10 16.0934 0 0
6:54 pm 18:54 Mostly Cloudy with Light Rain 73 22.8 64 17.8 74 74 N 10 17 29.72 1007 10 16.0934 0 0.0254
7:54 pm 19:54 Mostly Cloudy with Light Rain 72 22.2 63 17.2 73 73 NNW 12 19 29.75 1008 10 16.0934 0 0.0254
8:54 pm 20:54 Mostly Sunny 71 21.7 64 17.8 79 79 NW 5 7 29.76 1008 10 16.0934 0 0.0254
9:54 pm 21:54 Clear 71 21.7 63 17.2 76 76 NNW 12 19 29.75 1008 10 16.0934 0 0
10:54 pm 22:54 Clear 70 21.1 59 15 68 68 NNW 14 22 29.8 1009 10 16.0934 0 0
11:54 pm 23:54 Clear 65 18.3 60 15.6 84 84 NNE 6 9 29.79 1009 10 16.0934 0 0

Powered by AerisWeather